Weather History for Rice Lake, WI

Change the Weather History Date:

Tuesday, May 8, 2012

  Actual Average Record
Temperature  
Mean Temperature 49 °F -  
Max Temperature 57 °F 61 °F 77 °F (2005)
Min Temperature 41 °F 41 °F 37 °F (2002)
Degree Days  
Heating Degree Days 16    
Moisture  
Dew Point 43 °F    
Average Humidity 79    
Maximum Humidity 93    
Minimum Humidity 59    
Precipitation  
Precipitation 0.02 in - - ()
Sea Level Pressure  
Sea Level Pressure 29.88 in    
Wind  
Wind Speed 3 mph (WNW)    
Max Wind Speed 16 mph    
Max Gust Speed 25 mph    
Visibility 10 miles    
Events Rain    
Averages and records for this station are not official NWS values.
T = Trace of Precipitation, MM = Missing Value Source: NWS Daily Summary

Daily Weather History Graph

Daily Weather History Graph

Search for Another Location

Airport:

Trip Planner

Search our weather history database for the weather conditions in past years. The results will help you decide how hot, cold, wet, or windy it might be!

Date:

Astronomy

May. 08, 2012 Rise Set
Actual Time 5:44 AM CDT 8:23 PM CDT
Civil Twilight 5:11 AM CDT 8:56 PM CDT
Nautical Twilight 4:28 AM CDT 9:39 PM CDT
Astronomical Twilight 3:40 AM CDT 10:28 PM CDT
Moon 11:37 PM CDT (5/8) 7:48 AM CDT (5/8)
Length of Visible Light 15h 45m
Length of Day
14h 38m
Waning Gibbous, 90% of the Moon is Illuminated
May 8
Waning Gibbous
May 12
Last Quarter
May 20
New
May 28
First Quarter
Jun 4
Full

Hourly Weather History & Observations

Time (CDT) Temp. Windchill Dew Point Humidity Pressure Visibility Wind Dir Wind Speed Gust Speed Precip Events Conditions
12:15 AM 50.0 °F - 37.4 °F 62% 29.87 in 10.0 mi WSW 3.5 mph - N/A   Clear
12:35 AM 50.0 °F - 37.4 °F 62% 29.87 in 10.0 mi WSW 4.6 mph - N/A   Clear
12:55 AM 48.2 °F - 37.4 °F 66% 29.87 in 10.0 mi Calm Calm - N/A   Clear
1:15 AM 46.4 °F - 39.2 °F 76% 29.87 in 10.0 mi Calm Calm - N/A   Clear
1:35 AM 44.6 °F - 37.4 °F 76% 29.87 in 10.0 mi Calm Calm - N/A   Clear
1:55 AM 44.6 °F - 39.2 °F 81% 29.87 in 10.0 mi Calm Calm - N/A   Clear
2:15 AM 44.6 °F - 39.2 °F 81% 29.87 in 10.0 mi Calm Calm - N/A   Clear
2:35 AM 44.6 °F - 37.4 °F 76% 29.86 in 10.0 mi Calm Calm - N/A   Clear
2:55 AM 42.8 °F - 37.4 °F 81% 29.86 in 10.0 mi Calm Calm - N/A   Clear
3:15 AM 42.8 °F - 37.4 °F 81% 29.86 in 10.0 mi Calm Calm - N/A   Clear
3:35 AM 42.8 °F - 39.2 °F 87% 29.86 in 10.0 mi Calm Calm - N/A   Clear
3:55 AM 41.0 °F - 37.4 °F 87% 29.86 in 10.0 mi Calm Calm - N/A   Clear
4:15 AM 41.0 °F - 37.4 °F 87% 29.86 in 10.0 mi Calm Calm - N/A   Clear
4:35 AM 41.0 °F - 37.4 °F 87% 29.85 in 10.0 mi Calm Calm - N/A   Clear
4:55 AM 41.0 °F - 37.4 °F 87% 29.85 in 10.0 mi Calm Calm - N/A   Clear
5:15 AM 42.8 °F - 41.0 °F 93% 29.84 in 10.0 mi Calm Calm - N/A   Scattered Clouds
5:35 AM 41.0 °F - 37.4 °F 87% 29.83 in 10.0 mi Calm Calm - N/A   Mostly Cloudy
5:55 AM 42.8 °F 41.1 °F 41.0 °F 93% 29.84 in 10.0 mi West 3.5 mph - N/A   Scattered Clouds
6:15 AM 41.0 °F - 39.2 °F 93% 29.84 in 10.0 mi Calm Calm - N/A   Clear
6:35 AM 42.8 °F - 41.0 °F 93% 29.84 in 10.0 mi Calm Calm - N/A   Scattered Clouds
6:55 AM 44.6 °F 43.1 °F 42.8 °F 93% 29.85 in 10.0 mi WSW 3.5 mph - N/A   Overcast
7:15 AM 46.4 °F 45.2 °F 42.8 °F 87% 29.86 in 10.0 mi WSW 3.5 mph - N/A   Overcast
7:35 AM 46.4 °F 45.2 °F 42.8 °F 87% 29.86 in 10.0 mi WSW 3.5 mph - N/A   Overcast
7:55 AM 46.4 °F 45.2 °F 42.8 °F 87% 29.86 in 10.0 mi WSW 3.5 mph - N/A   Overcast
8:15 AM 46.4 °F 45.2 °F 42.8 °F 87% 29.86 in 10.0 mi West 3.5 mph - N/A   Overcast
8:55 AM 48.2 °F - 44.6 °F 87% 29.87 in 10.0 mi West 5.8 mph - N/A   Overcast
9:15 AM 48.2 °F - 42.8 °F 82% 29.87 in 10.0 mi West 3.5 mph - N/A   Overcast
9:35 AM 50.0 °F - 44.6 °F 82% 29.87 in 10.0 mi West 4.6 mph - N/A   Mostly Cloudy
10:15 AM 50.0 °F - 44.6 °F 82% 29.87 in 10.0 mi West 3.5 mph - N/A   Clear
10:35 AM 51.8 °F - 44.6 °F 76% 29.87 in 10.0 mi West 4.6 mph - N/A   Clear
10:55 AM 51.8 °F - 44.6 °F 76% 29.87 in 10.0 mi SW 3.5 mph - N/A   Scattered Clouds
11:15 AM 53.6 °F - 44.6 °F 72% 29.87 in 10.0 mi West 4.6 mph - N/A   Overcast
11:35 AM 53.6 °F - 44.6 °F 72% 29.87 in 10.0 mi West 5.8 mph - N/A   Mostly Cloudy
11:55 AM 53.6 °F - 44.6 °F 72% 29.87 in 10.0 mi WNW 4.6 mph - N/A   Overcast
12:15 PM 53.6 °F - 44.6 °F 72% 29.87 in 10.0 mi WNW 6.9 mph - N/A   Overcast
12:35 PM 51.8 °F - 46.4 °F 82% 29.86 in 10.0 mi Calm Calm - 0.02 in Rain Light Rain
12:55 PM 53.6 °F - 46.4 °F 77% 29.86 in 10.0 mi Calm Calm - 0.02 in   Overcast
1:15 PM 55.4 °F - 44.6 °F 67% 29.85 in 10.0 mi Calm Calm - N/A   Mostly Cloudy
1:35 PM 55.4 °F - 46.4 °F 72% 29.86 in 10.0 mi Calm Calm - N/A   Mostly Cloudy
1:55 PM 55.4 °F - 44.6 °F 67% 29.85 in 10.0 mi Calm Calm - N/A   Mostly Cloudy
2:15 PM 55.4 °F - 44.6 °F 67% 29.86 in 10.0 mi West 3.5 mph - N/A   Scattered Clouds
2:35 PM 55.4 °F - 44.6 °F 67% 29.86 in 10.0 mi SW 10.4 mph 16.1 mph N/A   Mostly Cloudy
2:55 PM 51.8 °F - 42.8 °F 71% 29.87 in 10.0 mi WSW 12.7 mph - N/A   Overcast
3:15 PM 53.6 °F - 44.6 °F 72% 29.87 in 10.0 mi West 15.0 mph 20.7 mph N/A   Overcast
3:35 PM 53.6 °F - 46.4 °F 77% 29.87 in 10.0 mi West 10.4 mph - N/A   Overcast
3:55 PM 51.8 °F - 46.4 °F 82% 29.87 in 7.0 mi West 8.1 mph - N/A   Drizzle
4:15 PM 51.8 °F - 46.4 °F 82% 29.86 in 10.0 mi WNW 6.9 mph - N/A   Scattered Clouds
4:35 PM 53.6 °F - 46.4 °F 77% 29.86 in 10.0 mi Calm Calm - N/A   Clear
4:55 PM 55.4 °F - 46.4 °F 72% 29.86 in 10.0 mi WNW 8.1 mph - N/A   Clear
5:15 PM 57.2 °F - 46.4 °F 67% 29.86 in 10.0 mi WNW 8.1 mph - N/A   Scattered Clouds
5:35 PM 55.4 °F - 44.6 °F 67% 29.86 in 10.0 mi WNW 6.9 mph - N/A   Unknown
5:55 PM 57.2 °F - 42.8 °F 59% 29.86 in 10.0 mi WNW 9.2 mph - N/A   Clear
6:15 PM 57.2 °F - 44.6 °F 63% 29.86 in 10.0 mi NW 5.8 mph - N/A   Clear
6:35 PM 57.2 °F - 44.6 °F 63% 29.87 in 10.0 mi North 13.8 mph - N/A   Mostly Cloudy
6:55 PM 51.8 °F - 44.6 °F 76% 29.89 in 10.0 mi NNE 16.1 mph 25.3 mph N/A   Overcast
7:15 PM 51.8 °F - 44.6 °F 76% 29.89 in 10.0 mi NE 12.7 mph 16.1 mph N/A   Overcast
7:35 PM 51.8 °F - 44.6 °F 76% 29.90 in 10.0 mi NE 5.8 mph 9.2 mph N/A Rain Light Rain
7:55 PM 50.0 °F - 44.6 °F 82% 29.90 in 10.0 mi North 3.5 mph - N/A   Mostly Cloudy
8:15 PM 50.0 °F - 44.6 °F 82% 29.90 in 10.0 mi North 3.5 mph - N/A   Light Drizzle
8:35 PM 50.0 °F - 44.6 °F 82% 29.91 in 10.0 mi NNW 3.5 mph - N/A   Overcast
8:55 PM 50.0 °F - 46.4 °F 87% 29.91 in 10.0 mi North 3.5 mph - N/A   Overcast
9:15 PM 50.0 °F - 46.4 °F 87% 29.93 in 10.0 mi Calm Calm - N/A   Overcast
9:35 PM 50.0 °F - 46.4 °F 87% 29.93 in 10.0 mi North 4.6 mph - N/A   Overcast
9:55 PM 50.0 °F - 46.4 °F 87% 29.94 in 7.0 mi NNW 3.5 mph - N/A   Overcast
10:15 PM 50.0 °F - 44.6 °F 82% 29.95 in 10.0 mi North 15.0 mph 19.6 mph N/A   Overcast
10:35 PM 50.0 °F - 44.6 °F 82% 29.95 in 10.0 mi NNE 11.5 mph - N/A   Overcast
10:55 PM 48.2 °F - 42.8 °F 82% 29.95 in 10.0 mi NNE 9.2 mph 17.3 mph N/A   Overcast
11:15 PM 46.4 °F 41.9 °F 42.8 °F 87% 29.96 in 10.0 mi North 9.2 mph - N/A   Overcast
11:35 PM 46.4 °F 42.4 °F 42.8 °F 87% 29.97 in 10.0 mi North 8.1 mph - N/A   Overcast
11:55 PM 46.4 °F 40.1 °F 42.8 °F 87% 29.97 in 10.0 mi North 15.0 mph - N/A   Overcast